When you browse on this site, cookies collect data to enhance your experience and personalize the content and advertising you see.
Visit our Privacy Policy to learn more. By continuing to use the site, you agree to this use of cookies and data.
  • în România
  • Lista ţărilor
  • Pe 7 zile
  • Temperatura apei
  • Hartă satelitară
  • Meteo pe hartă
  • Widget-uri
  • user-avatar
    Intrare

    Meteo pe oră la Azzano Decimo

    Astăzi, 25 Aprilie, Joi

    Timp Temperatura Precipitaţii Vânt Presiune Umiditate
    00:00 +15°C° 0 mm 2 m/s 761 mmHg 95%
    01:00 +15°C° 0 mm 1 m/s 761 mmHg 97%
    02:00 +15°C° 0 mm 2 m/s 761 mmHg 97%
    03:00 +15°C° 0 mm 2 m/s 762 mmHg 96%
    04:00 +15°C° 0 mm 2 m/s 762 mmHg 96%
    05:00 +15°C° 0 mm 2 m/s 762 mmHg 94%
    06:00 +15°C° 0 mm 2 m/s 762 mmHg 93%
    07:00 +16°C° 0 mm 2 m/s 762 mmHg 91%
    08:00 +17°C° 0 mm 2 m/s 762 mmHg 87%
    09:00 +17°C° 0 mm 2 m/s 762 mmHg 83%
    10:00 +18°C° 0 mm 2 m/s 762 mmHg 79%
    11:00 +19°C° 0 mm 2 m/s 762 mmHg 76%
    12:00 +20°C° 0 mm 2 m/s 762 mmHg 74%
    13:00 +21°C° 0 mm 3 m/s 762 mmHg 71%
    14:00 +20°C° 0 mm 2 m/s 762 mmHg 71%
    15:00 +20°C° 0 mm 2 m/s 762 mmHg 72%
    16:00 +20°C° 0 mm 2 m/s 761 mmHg 73%
    17:00 +19°C° 0 mm 2 m/s 761 mmHg 78%
    18:00 +19°C° 0 mm 1 m/s 761 mmHg 83%
    19:00 +18°C° 0 mm 1 m/s 761 mmHg 88%
    20:00 +18°C° 0 mm 1 m/s 761 mmHg 89%
    21:00 +16°C° 0 mm 1 m/s 761 mmHg 90%
    22:00 +16°C° 0 mm 1 m/s 761 mmHg 91%
    23:00 +16°C° 0 mm 1 m/s 761 mmHg 90%

    Mâine, 26 Aprilie, Vineri

    Timp Temperatura Precipitaţii Vânt Presiune Umiditate
    00:00 +16°C° 0 mm 2 m/s 761 mmHg 89%
    01:00 +16°C° 0 mm 2 m/s 761 mmHg 88%
    02:00 +16°C° 0 mm 2 m/s 761 mmHg 87%
    03:00 +16°C° 0 mm 2 m/s 760 mmHg 87%
    04:00 +14°C° 0 mm 3 m/s 760 mmHg 87%
    05:00 +14°C° 0.1 mm 3 m/s 760 mmHg 87%
    06:00 +16°C° 0.1 mm 3 m/s 759 mmHg 86%
    07:00 +16°C° 0.1 mm 3 m/s 759 mmHg 86%
    08:00 +16°C° 0 mm 3 m/s 759 mmHg 85%
    09:00 +17°C° 0 mm 3 m/s 759 mmHg 85%
    10:00 +18°C° 0 mm 3 m/s 759 mmHg 84%
    11:00 +18°C° 0.5 mm 3 m/s 758 mmHg 80%
    12:00 +19°C° 0.5 mm 3 m/s 758 mmHg 76%
    13:00 +20°C° 0.5 mm 3 m/s 758 mmHg 72%
    14:00 +20°C° 1.9 mm 3 m/s 758 mmHg 72%
    15:00 +20°C° 1.9 mm 4 m/s 758 mmHg 71%
    16:00 +20°C° 1.9 mm 4 m/s 758 mmHg 70%
    17:00 +19°C° 0.8 mm 3 m/s 758 mmHg 75%
    18:00 +17°C° 0.8 mm 3 m/s 758 mmHg 80%
    19:00 +16°C° 0.8 mm 2 m/s 758 mmHg 85%
    20:00 +15°C° 0.5 mm 2 m/s 759 mmHg 86%
    21:00 +15°C° 0.5 mm 2 m/s 759 mmHg 87%
    22:00 +14°C° 0.5 mm 2 m/s 760 mmHg 88%
    23:00 +14°C° 0.5 mm 2 m/s 760 mmHg 89%

    Poimâine, 27 Aprilie, Sâmbătă

    Timp Temperatura Precipitaţii Vânt Presiune Umiditate
    00:00 +13°C° 0.5 mm 2 m/s 760 mmHg 90%
    01:00 +13°C° 0.5 mm 2 m/s 760 mmHg 91%
    02:00 +12°C° 0.7 mm 2 m/s 760 mmHg 90%
    03:00 +12°C° 0.7 mm 2 m/s 760 mmHg 89%
    04:00 +12°C° 0.7 mm 2 m/s 760 mmHg 88%
    05:00 +12°C° 0.4 mm 2 m/s 761 mmHg 85%
    06:00 +13°C° 0.4 mm 2 m/s 761 mmHg 81%
    07:00 +13°C° 0.4 mm 2 m/s 761 mmHg 77%
    08:00 +15°C° 0 mm 2 m/s 761 mmHg 70%
    09:00 +16°C° 0 mm 2 m/s 761 mmHg 63%
    10:00 +18°C° 0 mm 2 m/s 761 mmHg 56%
    11:00 +19°C° 0 mm 2 m/s 761 mmHg 54%
    12:00 +19°C° 0 mm 2 m/s 760 mmHg 51%
    13:00 +20°C° 0 mm 2 m/s 760 mmHg 49%
    14:00 +20°C° 0.1 mm 2 m/s 760 mmHg 51%
    15:00 +20°C° 0.1 mm 2 m/s 759 mmHg 53%
    16:00 +20°C° 0.1 mm 2 m/s 759 mmHg 54%
    17:00 +18°C° 0.1 mm 2 m/s 759 mmHg 60%
    18:00 +18°C° 0.1 mm 1 m/s 759 mmHg 66%
    19:00 +16°C° 0.1 mm 1 m/s 760 mmHg 72%
    20:00 +15°C° 0.1 mm 1 m/s 760 mmHg 74%
    21:00 +14°C° 0.1 mm 1 m/s 760 mmHg 76%
    22:00 +14°C° 0.1 mm 1 m/s 761 mmHg 77%
    23:00 +13°C° 0.1 mm 1 m/s 761 mmHg 79%

    28 Aprilie, Duminică

    Timp Temperatura Precipitaţii Vânt Presiune Umiditate
    00:00 +13°C° 0.1 mm 1 m/s 761 mmHg 80%
    01:00 +13°C° 0.1 mm 1 m/s 761 mmHg 81%
    02:00 +13°C° 0.2 mm 1 m/s 761 mmHg 82%
    03:00 +12°C° 0.2 mm 1 m/s 760 mmHg 84%
    04:00 +12°C° 0.2 mm 1 m/s 760 mmHg 85%
    05:00 +12°C° 0.5 mm 2 m/s 760 mmHg 83%
    06:00 +12°C° 0.5 mm 3 m/s 760 mmHg 82%
    07:00 +12°C° 0.5 mm 4 m/s 760 mmHg 80%
    08:00 +12°C° 0.7 mm 4 m/s 760 mmHg 75%
    09:00 +12°C° 0.7 mm 4 m/s 760 mmHg 71%
    10:00 +13°C° 0.7 mm 5 m/s 760 mmHg 66%
    11:00 +13°C° 0.5 mm 5 m/s 760 mmHg 65%
    12:00 +13°C° 0.5 mm 5 m/s 760 mmHg 65%
    13:00 +13°C° 0.5 mm 5 m/s 760 mmHg 64%
    14:00 +13°C° 0.7 mm 5 m/s 759 mmHg 65%
    15:00 +13°C° 0.7 mm 5 m/s 759 mmHg 66%
    16:00 +13°C° 0.7 mm 5 m/s 759 mmHg 67%
    17:00 +12°C° 0.2 mm 5 m/s 759 mmHg 68%
    18:00 +12°C° 0.2 mm 4 m/s 759 mmHg 70%
    19:00 +11°C° 0.2 mm 4 m/s 760 mmHg 72%
    20:00 +11°C° 0.6 mm 4 m/s 760 mmHg 73%
    21:00 +10°C° 0.6 mm 4 m/s 760 mmHg 75%
    22:00 +10°C° 0.6 mm 3 m/s 761 mmHg 77%
    23:00 +9°C° 3.3 mm 3 m/s 761 mmHg 80%

    29 Aprilie, Luni

    Timp Temperatura Precipitaţii Vânt Presiune Umiditate
    00:00 +9°C° 3.3 mm 3 m/s 761 mmHg 83%
    01:00 +8°C° 3.3 mm 2 m/s 760 mmHg 86%
    02:00 +8°C° 2.6 mm 2 m/s 760 mmHg 86%
    03:00 +8°C° 2.6 mm 3 m/s 760 mmHg 87%
    04:00 +8°C° 2.6 mm 3 m/s 760 mmHg 87%
    05:00 +8°C° 2.3 mm 2 m/s 760 mmHg 88%
    06:00 +8°C° 2.3 mm 2 m/s 760 mmHg 88%
    07:00 +8°C° 2.3 mm 2 m/s 760 mmHg 89%
    08:00 +8°C° 1.2 mm 2 m/s 760 mmHg 87%
    09:00 +9°C° 1.2 mm 2 m/s 760 mmHg 85%
    10:00 +10°C° 1.2 mm 3 m/s 760 mmHg 84%
    11:00 +10°C° 0.5 mm 3 m/s 760 mmHg 81%
    12:00 +11°C° 0.5 mm 3 m/s 760 mmHg 79%
    13:00 +12°C° 0.5 mm 3 m/s 759 mmHg 77%
    14:00 +13°C° 0 mm 3 m/s 759 mmHg 75%
    15:00 +14°C° 0 mm 3 m/s 759 mmHg 73%
    16:00 +16°C° 0 mm 3 m/s 759 mmHg 70%
    17:00 +14°C° 0 mm 3 m/s 759 mmHg 75%
    18:00 +13°C° 0 mm 3 m/s 759 mmHg 80%
    19:00 +12°C° 0 mm 3 m/s 759 mmHg 85%
    20:00 +12°C° 0 mm 2 m/s 760 mmHg 84%
    21:00 +10°C° 0 mm 2 m/s 760 mmHg 83%
    22:00 +9°C° 0 mm 2 m/s 761 mmHg 82%
    23:00 +9°C° 0 mm 2 m/s 761 mmHg 80%

    30 Aprilie, Marţi

    Timp Temperatura Precipitaţii Vânt Presiune Umiditate
    00:00 +9°C° 0 mm 2 m/s 761 mmHg 78%
    01:00 +9°C° 0 mm 2 m/s 761 mmHg 75%
    02:00 +8°C° 0 mm 2 m/s 761 mmHg 74%
    03:00 +8°C° 0 mm 2 m/s 760 mmHg 74%
    04:00 +9°C° 0 mm 1 m/s 760 mmHg 73%
    05:00 +10°C° 0 mm 1 m/s 760 mmHg 71%
    06:00 +10°C° 0 mm 1 m/s 760 mmHg 70%
    07:00 +11°C° 0 mm 1 m/s 759 mmHg 68%
    08:00 +13°C° 0 mm 1 m/s 759 mmHg 63%
    09:00 +15°C° 0 mm 1 m/s 759 mmHg 59%
    10:00 +18°C° 0 mm 1 m/s 758 mmHg 54%
    11:00 +18°C° 0 mm 2 m/s 758 mmHg 53%
    12:00 +18°C° 0 mm 2 m/s 758 mmHg 52%
    13:00 +19°C° 0 mm 2 m/s 757 mmHg 50%
    14:00 +19°C° 0 mm 2 m/s 757 mmHg 51%
    15:00 +19°C° 0 mm 2 m/s 757 mmHg 52%
    16:00 +19°C° 0 mm 2 m/s 757 mmHg 52%
    17:00 +18°C° 0 mm 2 m/s 757 mmHg 59%
    18:00 +16°C° 0 mm 2 m/s 757 mmHg 66%
    19:00 +15°C° 0 mm 1 m/s 757 mmHg 72%
    20:00 +14°C° 0 mm 1 m/s 758 mmHg 73%
    21:00 +14°C° 0 mm 1 m/s 758 mmHg 75%
    22:00 +13°C° 0 mm 1 m/s 759 mmHg 76%
    23:00 +13°C° 0 mm 1 m/s 759 mmHg 78%
    Arată mai mult